Time,TemperatureF,DewpointF,PressureIn,WindDirection,WindDirectionDegrees,WindSpeedMPH,WindSpeedGustMPH,Humidity,HourlyPrecipIn,Conditions,Clouds,dailyrainin,SoftwareType,DateUTC
2013-02-12 00:08:00,44.7,44.0,29.57,East,101,1.0,7.0,98,0.00,,,0.51,weatherlink.com 1.10,2013-02-12 05:08:00,
2013-02-12 00:23:00,45.0,45.0,29.57,NNW,338,2.0,8.0,98,0.00,,,0.51,weatherlink.com 1.10,2013-02-12 05:23:00,
2013-02-12 00:38:00,45.1,45.0,29.57,NNW,344,1.0,7.0,98,0.00,,,0.51,weatherlink.com 1.10,2013-02-12 05:38:00,
2013-02-12 00:53:00,44.3,44.0,29.57,WNW,285,4.0,23.0,98,0.00,,,0.51,weatherlink.com 1.10,2013-02-12 05:53:00,
2013-02-12 01:08:00,43.3,43.0,29.58,West,273,6.0,15.0,97,0.00,,,0.51,weatherlink.com 1.10,2013-02-12 06:08:00,
2013-02-12 01:23:00,42.9,42.0,29.57,WNW,301,7.0,11.0,97,0.00,,,0.51,weatherlink.com 1.10,2013-02-12 06:23:00,
2013-02-12 01:38:00,42.4,42.0,29.57,West,274,4.0,9.0,97,0.00,,,0.51,weatherlink.com 1.10,2013-02-12 06:38:00,
2013-02-12 01:53:00,42.1,41.0,29.58,WNW,287,8.0,11.0,97,0.00,,,0.51,weatherlink.com 1.10,2013-02-12 06:53:00,
2013-02-12 02:08:00,42.4,42.0,29.58,WNW,289,14.0,16.0,97,0.00,,,0.51,weatherlink.com 1.10,2013-02-12 07:08:00,
2013-02-12 02:23:00,42.5,42.0,29.57,NW,305,6.0,14.0,96,0.00,,,0.51,weatherlink.com 1.10,2013-02-12 07:23:00,
2013-02-12 02:38:00,41.9,41.0,29.58,WNW,300,3.0,8.0,96,0.00,,,0.51,weatherlink.com 1.10,2013-02-12 07:38:00,
2013-02-12 02:53:00,41.1,40.0,29.58,NW,323,2.0,5.0,96,0.00,,,0.51,weatherlink.com 1.10,2013-02-12 07:53:00,
2013-02-12 03:08:00,40.4,39.0,29.58,West,266,2.0,5.0,96,0.00,,,0.51,weatherlink.com 1.10,2013-02-12 08:08:00,
2013-02-12 03:23:00,39.9,39.0,29.59,WNW,295,0.0,5.0,97,0.00,,,0.51,weatherlink.com 1.10,2013-02-12 08:23:00,
2013-02-12 03:38:00,40.1,39.0,29.60,NW,322,6.0,12.0,95,0.00,,,0.51,weatherlink.com 1.10,2013-02-12 08:38:00,
2013-02-12 03:53:00,39.5,38.0,29.60,NW,316,3.0,5.0,95,0.00,,,0.51,weatherlink.com 1.10,2013-02-12 08:53:00,
2013-02-12 04:08:00,39.1,38.0,29.61,WNW,297,4.0,13.0,94,0.00,,,0.51,weatherlink.com 1.10,2013-02-12 09:08:00,
2013-02-12 04:23:00,38.6,37.0,29.61,NW,314,6.0,12.0,92,0.00,,,0.51,weatherlink.com 1.10,2013-02-12 09:23:00,
2013-02-12 04:38:00,38.2,36.0,29.62,WNW,295,3.0,10.0,91,0.00,,,0.51,weatherlink.com 1.10,2013-02-12 09:38:00,
2013-02-12 04:53:00,37.9,36.0,29.62,NW,311,3.0,8.0,91,0.00,,,0.51,weatherlink.com 1.10,2013-02-12 09:53:00,
2013-02-12 05:08:00,37.3,35.0,29.63,WNW,302,1.0,8.0,91,0.00,,,0.51,weatherlink.com 1.10,2013-02-12 10:08:00,
2013-02-12 05:23:00,36.7,34.0,29.63,West,278,2.0,4.0,91,0.00,,,0.51,weatherlink.com 1.10,2013-02-12 10:23:00,
2013-02-12 05:38:00,36.4,34.0,29.64,WNW,301,5.0,9.0,91,0.00,,,0.51,weatherlink.com 1.10,2013-02-12 10:38:00,
2013-02-12 05:53:00,36.5,34.0,29.64,WNW,300,3.0,8.0,90,0.00,,,0.51,weatherlink.com 1.10,2013-02-12 10:53:00,
2013-02-12 06:08:00,36.7,34.0,29.64,NW,308,2.0,9.0,89,0.00,,,0.51,weatherlink.com 1.10,2013-02-12 11:08:00,
2013-02-12 06:23:00,36.5,33.0,29.65,West,274,3.0,9.0,88,0.00,,,0.51,weatherlink.com 1.10,2013-02-12 11:23:00,
2013-02-12 06:38:00,36.3,33.0,29.65,West,259,0.0,8.0,89,0.00,,,0.51,weatherlink.com 1.10,2013-02-12 11:38:00,
2013-02-12 06:53:00,36.2,33.0,29.66,North,1,3.0,8.0,89,0.00,,,0.51,weatherlink.com 1.10,2013-02-12 11:53:00,
2013-02-12 07:08:00,36.7,34.0,29.67,NNW,331,2.0,7.0,88,0.00,,,0.51,weatherlink.com 1.10,2013-02-12 12:08:00,
2013-02-12 07:23:00,37.5,34.0,29.67,NW,316,2.0,6.0,87,0.00,,,0.51,weatherlink.com 1.10,2013-02-12 12:23:00,
2013-02-12 07:38:00,38.4,34.0,29.68,NNW,327,3.0,9.0,85,0.00,,,0.51,weatherlink.com 1.10,2013-02-12 12:38:00,
2013-02-12 07:53:00,39.4,35.0,29.68,NW,306,3.0,7.0,83,0.00,,,0.51,weatherlink.com 1.10,2013-02-12 12:53:00,
2013-02-12 08:08:00,40.2,35.0,29.69,NW,316,2.0,10.0,82,0.00,,,0.51,weatherlink.com 1.10,2013-02-12 13:08:00,
2013-02-12 08:23:00,40.8,35.0,29.69,NW,306,3.0,11.0,80,0.00,,,0.51,weatherlink.com 1.10,2013-02-12 13:23:00,
2013-02-12 08:38:00,41.3,35.0,29.69,WNW,285,5.0,12.0,78,0.00,,,0.51,weatherlink.com 1.10,2013-02-12 13:38:00,
2013-02-12 08:53:00,41.7,35.0,29.70,NW,314,4.0,15.0,78,0.00,,,0.51,weatherlink.com 1.10,2013-02-12 13:53:00,
2013-02-12 09:08:00,42.0,35.0,29.70,NW,318,7.0,13.0,76,0.00,,,0.51,weatherlink.com 1.10,2013-02-12 14:08:00,
2013-02-12 09:23:00,42.3,35.0,29.70,WNW,284,8.0,16.0,75,0.00,,,0.51,weatherlink.com 1.10,2013-02-12 14:23:00,
2013-02-12 09:38:00,42.5,34.0,29.70,NW,319,8.0,19.0,73,0.00,,,0.51,weatherlink.com 1.10,2013-02-12 14:38:00,
2013-02-12 09:53:00,42.6,35.0,29.70,West,280,6.0,15.0,74,0.00,,,0.51,weatherlink.com 1.10,2013-02-12 14:53:00,
2013-02-12 10:08:00,42.8,36.0,29.71,NNW,342,3.0,15.0,77,0.00,,,0.51,weatherlink.com 1.10,2013-02-12 15:08:00,
2013-02-12 10:23:00,43.1,35.0,29.70,SW,224,7.0,14.0,74,0.00,,,0.00,weatherlink.com 1.10,2013-02-12 15:23:00,
2013-02-12 10:39:00,43.3,35.0,29.71,WNW,301,5.0,16.0,73,0.00,,,0.00,weatherlink.com 1.10,2013-02-12 15:39:00,
2013-02-12 10:54:00,43.7,35.0,29.70,WNW,290,9.0,18.0,71,0.00,,,0.00,weatherlink.com 1.10,2013-02-12 15:54:00,
2013-02-12 11:09:00,43.5,36.0,29.70,NNW,335,2.0,14.0,76,0.00,,,0.00,weatherlink.com 1.10,2013-02-12 16:09:00,
2013-02-12 11:24:00,43.5,36.0,29.70,WNW,288,6.0,8.0,75,0.00,,,0.00,weatherlink.com 1.10,2013-02-12 16:24:00,
2013-02-12 11:39:00,44.0,35.0,29.70,North,360,7.0,18.0,70,0.00,,,0.00,weatherlink.com 1.10,2013-02-12 16:39:00,
2013-02-12 11:54:00,44.3,34.0,29.70,NW,323,8.0,17.0,66,0.00,,,0.00,weatherlink.com 1.10,2013-02-12 16:54:00,
2013-02-12 12:09:00,44.6,33.0,29.70,NNW,344,6.0,19.0,64,0.00,,,0.00,weatherlink.com 1.10,2013-02-12 17:09:00,
2013-02-12 12:24:00,44.6,33.0,29.70,WNW,290,10.0,22.0,63,0.00,,,0.00,weatherlink.com 1.10,2013-02-12 17:24:00,
2013-02-12 12:39:00,44.6,32.0,29.70,NNW,335,7.0,17.0,62,0.00,,,0.00,weatherlink.com 1.10,2013-02-12 17:39:00,
2013-02-12 12:54:00,44.7,32.0,29.70,West,280,8.0,20.0,61,0.00,,,0.00,weatherlink.com 1.10,2013-02-12 17:54:00,
2013-02-12 13:09:00,45.4,32.0,29.71,WNW,288,6.0,18.0,60,0.00,,,0.00,weatherlink.com 1.10,2013-02-12 18:09:00,
2013-02-12 13:24:00,44.6,35.0,29.71,NW,314,8.0,16.0,69,0.00,,,0.00,weatherlink.com 1.10,2013-02-12 18:24:00,
2013-02-12 13:39:00,44.7,33.0,29.71,NW,326,8.0,16.0,65,0.00,,,0.00,weatherlink.com 1.10,2013-02-12 18:39:00,
2013-02-12 13:54:00,44.9,34.0,29.71,NW,309,2.0,16.0,66,0.00,,,0.00,weatherlink.com 1.10,2013-02-12 18:54:00,
2013-02-12 14:09:00,44.7,33.0,29.71,West,267,5.0,19.0,65,0.00,,,0.00,weatherlink.com 1.10,2013-02-12 19:09:00,
2013-02-12 14:24:00,44.7,34.0,29.72,WNW,297,5.0,21.0,66,0.00,,,0.00,weatherlink.com 1.10,2013-02-12 19:24:00,
2013-02-12 14:39:00,44.8,34.0,29.72,NW,316,10.0,17.0,66,0.00,,,0.00,weatherlink.com 1.10,2013-02-12 19:39:00,
2013-02-12 14:54:00,44.7,34.0,29.72,WNW,297,8.0,16.0,67,0.00,,,0.00,weatherlink.com 1.10,2013-02-12 19:54:00,
2013-02-12 15:09:00,44.6,34.0,29.73,NNW,340,4.0,16.0,66,0.00,,,0.00,weatherlink.com 1.10,2013-02-12 20:09:00,
2013-02-12 15:24:00,44.5,34.0,29.73,NW,311,5.0,12.0,66,0.00,,,0.00,weatherlink.com 1.10,2013-02-12 20:24:00,
2013-02-12 15:39:00,44.4,34.0,29.73,NW,305,14.0,17.0,66,0.00,,,0.00,weatherlink.com 1.10,2013-02-12 20:39:00,
2013-02-12 15:54:00,43.9,34.0,29.73,West,274,9.0,17.0,67,0.00,,,0.00,weatherlink.com 1.10,2013-02-12 20:54:00,
2013-02-12 16:09:00,43.8,33.0,29.73,NW,308,8.0,12.0,66,0.00,,,0.00,weatherlink.com 1.10,2013-02-12 21:09:00,
2013-02-12 16:24:00,43.3,33.0,29.73,WNW,290,6.0,10.0,68,0.00,,,0.00,weatherlink.com 1.10,2013-02-12 21:24:00,
2013-02-12 16:39:00,42.4,32.0,29.73,WNW,297,2.0,11.0,68,0.00,,,0.00,weatherlink.com 1.10,2013-02-12 21:39:00,
2013-02-12 16:54:00,41.6,32.0,29.73,WSW,256,6.0,9.0,70,0.00,,,0.00,weatherlink.com 1.10,2013-02-12 21:54:00,
2013-02-12 17:09:00,40.8,32.0,29.72,NW,319,6.0,8.0,72,0.00,,,0.00,weatherlink.com 1.10,2013-02-12 22:09:00,
2013-02-12 17:24:00,41.1,31.0,29.73,West,271,4.0,11.0,68,0.00,,,0.00,weatherlink.com 1.10,2013-02-12 22:24:00,
2013-02-12 17:39:00,40.6,31.0,29.74,SSW,213,1.0,5.0,68,0.00,,,0.00,weatherlink.com 1.10,2013-02-12 22:39:00,
2013-02-12 17:54:00,38.9,30.0,29.73,WSW,249,0.0,2.0,71,0.00,,,0.00,weatherlink.com 1.10,2013-02-12 22:54:00,
2013-02-12 18:09:00,37.2,30.0,29.73,SW,221,1.0,1.0,76,0.00,,,0.00,weatherlink.com 1.10,2013-02-12 23:09:00,
2013-02-12 18:25:00,36.1,31.0,29.75,South,190,0.0,5.0,80,0.00,,,0.00,weatherlink.com 1.10,2013-02-12 23:25:00,
2013-02-12 18:40:00,36.4,31.0,29.77,WNW,285,2.0,3.0,81,0.00,,,0.00,weatherlink.com 1.10,2013-02-12 23:40:00,
2013-02-12 18:55:00,36.4,31.0,29.77,West,263,2.0,3.0,82,0.00,,,0.00,weatherlink.com 1.10,2013-02-12 23:55:00,
2013-02-12 19:10:00,36.1,32.0,29.79,NW,319,0.0,4.0,84,0.00,,,0.00,weatherlink.com 1.10,2013-02-13 00:10:00,
2013-02-12 19:25:00,36.2,32.0,29.82,WNW,291,2.0,2.0,85,0.00,,,0.00,weatherlink.com 1.10,2013-02-13 00:25:00,
2013-02-12 19:40:00,36.3,33.0,29.84,WNW,301,2.0,7.0,86,0.00,,,0.00,weatherlink.com 1.10,2013-02-13 00:40:00,
2013-02-12 19:55:00,37.3,32.0,29.85,NW,314,3.0,8.0,81,0.00,,,0.00,weatherlink.com 1.10,2013-02-13 00:55:00,
2013-02-12 20:10:00,37.7,31.0,29.85,WNW,293,4.0,11.0,77,0.00,,,0.00,weatherlink.com 1.10,2013-02-13 01:10:00,
2013-02-12 20:25:00,37.9,31.0,29.84,NW,321,7.0,8.0,76,0.00,,,0.00,weatherlink.com 1.10,2013-02-13 01:25:00,
2013-02-12 20:40:00,37.8,30.0,29.84,WNW,286,1.0,6.0,74,0.00,,,0.00,weatherlink.com 1.10,2013-02-13 01:40:00,
2013-02-12 21:10:00,37.2,30.0,29.84,West,280,3.0,5.0,75,0.00,,,0.00,weatherlink.com 1.10,2013-02-13 02:10:00,
2013-02-12 21:25:00,37.2,30.0,29.84,NW,316,1.0,8.0,74,0.00,,,0.00,weatherlink.com 1.10,2013-02-13 02:25:00,
2013-02-12 21:40:00,37.0,29.0,29.83,WNW,283,1.0,7.0,74,0.00,,,0.00,weatherlink.com 1.10,2013-02-13 02:40:00,
2013-02-12 21:55:00,37.2,29.0,29.82,NW,315,7.0,10.0,73,0.00,,,0.00,weatherlink.com 1.10,2013-02-13 02:55:00,
2013-02-12 22:10:00,36.8,29.0,29.82,WNW,300,3.0,8.0,74,0.00,,,0.00,weatherlink.com 1.10,2013-02-13 03:10:00,
2013-02-12 22:25:00,35.9,29.0,29.82,WNW,290,1.0,4.0,75,0.00,,,0.00,weatherlink.com 1.10,2013-02-13 03:25:00,
2013-02-12 22:40:00,35.1,28.0,29.81,NW,306,0.0,1.0,76,0.00,,,0.00,weatherlink.com 1.10,2013-02-13 03:40:00,
2013-02-12 22:55:00,34.9,28.0,29.80,WSW,255,0.0,1.0,77,0.00,,,0.00,weatherlink.com 1.10,2013-02-13 03:55:00,
2013-02-12 23:10:00,34.2,28.0,29.80,NW,310,3.0,5.0,78,0.00,,,0.00,weatherlink.com 1.10,2013-02-13 04:10:00,
2013-02-12 23:25:00,34.1,28.0,29.82,West,266,0.0,4.0,78,0.00,,,0.00,weatherlink.com 1.10,2013-02-13 04:25:00,
2013-02-12 23:40:00,32.9,27.0,29.81,SSW,213,1.0,2.0,79,0.00,,,0.00,weatherlink.com 1.10,2013-02-13 04:40:00,
2013-02-12 23:55:00,32.0,27.0,29.82,SSW,204,1.0,1.0,80,0.00,,,0.00,weatherlink.com 1.10,2013-02-13 04:55:00,